Tracking 29892 objects as of 21-Nov-2024
HD Live streaming from Space Station
objects crossing your sky now

CZ-6A DEB

Track CZ-6A DEB now!
10-day predictions


NORAD ID: 56615
Int'l Code: 2022-151AEP
Perigee: 592.8 km
Apogee: 706.3 km
Inclination: 98.7 °
Period: 97.6 minutes
Semi major axis: 7020 km
RCS: Unknown
Launch date: November 11, 2022
Source: People's Republic of China (PRC)
Launch site: Taiyaun Space Center, China (TSC)

Note: This is SATELLITE DEBRIS
Your satellite tracking list
Your tracking list is empty




NASA's NSSDC Master Catalog

Two Line Element Set (TLE):
1 56615U 22151AEP 24325.56230893  .00042521  00000-0  58500-2 0  9990
2 56615  98.6555   5.2670 0080854 212.2390 147.3861 14.75854800 83673
Source of the keplerian elements: AFSPC